Location: Andrest
(43.3200°N, 0.0641°E)
Time: 20:25:29
(UTC+00:00)

Cosmos 2228 Rocket - Pass Details

Date: 01 December 2020
Orbit: 618 x 652 km, 82.5° (Epoch: 21 January)

Event Time Altitude Azimuth Distance (km) Brightness Sun altitude
Rises 17:25:57 0° 154° (SSE) 2,949 6.5 -10.9°
Reaches altitude 10° 17:28:33 10° 140° (SE) 2,040 5.5 -11.3°
Maximum altitude 17:32:07 23° 88° (E) 1,357 4.2 -11.9°
Enters shadow 17:34:35 15° 46° (NE) 1,716 4.8 -12.4°
